This is the latest recevied weather packets stored in our database for station/object DC1MPP-9. If no packets are shown the sender has not sent any weather packets the latest 10 day(s).
| Time | Temp. | Humidity | Pressure | Rain* | Wind** | Luminosity | Snow |
|---|---|---|---|---|---|---|---|
| 1777541324 | 11.67° C | 32% | 969 hPa | - | - | - | - |
| 1777541082 | 11.67° C | 32% | 969 hPa | - | - | - | - |
| 1777540841 | 11.67° C | 32% | 969 hPa | - | - | - | - |
| 1777540600 | 11.11° C | 32% | 969 hPa | - | - | - | - |
| 1777540359 | 12.22° C | 35% | 969 hPa | - | - | - | - |
| 1777540118 | 11.67° C | 33% | 969 hPa | - | - | - | - |
| 1777539877 | 11.11° C | 32% | 969 hPa | - | - | - | - |
| 1777539636 | 11.67° C | 34% | 969 hPa | - | - | - | - |
| 1777539395 | 11.11° C | 36% | 969 hPa | - | - | - | - |
| 1777539154 | 10.56° C | 35% | 969 hPa | - | - | - | - |
| 1777538913 | 10.56° C | 33% | 969 hPa | - | - | - | - |
| 1777538672 | 10.56° C | 33% | 969 hPa | - | - | - | - |
| 1777538431 | 10.56° C | 33% | 969 hPa | - | - | - | - |
| 1777538190 | 10.56° C | 36% | 969 hPa | - | - | - | - |
| 1777537949 | 10.56° C | 33% | 969 hPa | - | - | - | - |
| 1777537708 | 9.44° C | 34% | 969 hPa | - | - | - | - |
| 1777537466 | 10.56° C | 34% | 969 hPa | - | - | - | - |
| 1777537226 | 10° C | 35% | 969 hPa | - | - | - | - |
| 1777536984 | 9.44° C | 34% | 969 hPa | - | - | - | - |
| 1777536743 | 9.44° C | 33% | 969 hPa | - | - | - | - |
| 1777536502 | 9.44° C | 35% | 969 hPa | - | - | - | - |
| 1777536261 | 9.44° C | 34% | 969 hPa | - | - | - | - |
| 1777536020 | 8.89° C | 34% | 969 hPa | - | - | - | - |
| 1777535779 | 8.33° C | 34% | 969 hPa | - | - | - | - |
| 1777535538 | 8.89° C | 34% | 969 hPa | - | - | - | - |
* Rain since midnight (hover to see other rain measurements)
** Current wind speed in m/s (hover to see current wind gust speed)